User: anonymous   Login
Location: Bangkok
(13.7500°N, 100.5170°E)
Time: 16:20:27
(UTC+07:00)
Language:

SPOT 1/Viking Rocket - Orbit

View from above orbital plane
View from above orbital plane
View from above satellite
View from above satellite

Ground track
Ground track

The orbit data is extracted from the following two-line orbital elements,

1 16615U 86019C   17083.88647569 +.00000026 +00000-0 +26483-4 0  9990
2 16615 098.6201 151.7505 0010644 295.6388 185.1399 14.31645277627356
Epoch (UTC): 24 March 2017 21:16:31
Eccentricity: 0.0010644
inclination: 98.6201°
perigee height: 778 km
apogee height: 794 km
right ascension of ascending node: 151.7505°
argument of perigee: 295.6388°
revolutions per day: 14.31645277
mean anomaly at epoch: 185.1399°
orbit number at epoch: 62735

The dashed part of the orbit path shows where the satellite is in the earth's shadow,  

DLR